ROMMA est une association bénévole à but non lucratif. Votre soutien est indispensable : ADHERER à ROMMA ou FAIRE un DON

Selonnet - (04, Alpes de Haute Provence)

Vallée de la Blanche (1065 m)   Longitude: 06° 18' 53'' E   Latitude: 44° 22' 12'' N Station partenaire n°8
 

Détail journalier du     <<     >>

Température Precipitation Humidité Vent Dir Rafale Dir. rafale Ensol.
Heure (°C) (mm) (%) (km/h) (km/h) (min)
01:00 12.00414ENE32ESE0
02:00 11.60412ENE29ESE0
03:00 11.40432N24ESE0
04:00 11.30433SO39ENE0
05:00 11.20424ENE35ENE0
06:00 11.70438E55ESE0
07:00 11.904119E47E0
08:00 11.804213ESE50SE0
09:00 12.40439E37ESE0
10:00 13.703911ESE44SE50
11:00 15.00407ESE47ESE60
12:00 15.403812E44ENE60
13:00 16.703812ENE42ESE60
14:00 16.603710E40E60
15:00 15.403715E47ESE10
16:00 14.403913E39E0
17:00 13.603913E40E0
18:00 12.90406ENE31ENE0
19:00 12.10404ENE29E0
20:00 10.90536ENE52E0
21:00 9.905314ENE45ESE0
22:00 9.70641E15E0
23:00 9.1054011SO0
minuit 9.3054013SO0

Graphique du 22-04-2019

 

Serveur OMMA